• Em Portugal
  • Lista de países
  • Para 7 dias
  • Temperatura da água
  • Mapas de satélite
  • Mapa do tempo
  • Widgets de tempo
  • user-avatar
    Iniciar Sessão

    Previsão horária em Ghanzi

    Hoje, 24 Outubro, Quarta-feira

    Tempo Temperatura Precipitação Vento Pressão Humidade
    00:00 +28°C° 0 mm 2 m/s 714 mmHg 26%
    01:00 +28°C° 0 mm 2 m/s 714 mmHg 27%
    02:00 +27°C° 0 mm 2 m/s 714 mmHg 28%
    03:00 +27°C° 0 mm 2 m/s 713 mmHg 29%
    04:00 +26°C° 0 mm 2 m/s 713 mmHg 30%
    05:00 +27°C° 0 mm 2 m/s 714 mmHg 29%
    06:00 +28°C° 0 mm 2 m/s 714 mmHg 28%
    07:00 +28°C° 0 mm 2 m/s 714 mmHg 27%
    08:00 +30°C° 0 mm 3 m/s 714 mmHg 24%
    09:00 +33°C° 0 mm 3 m/s 715 mmHg 21%
    10:00 +35°C° 0 mm 4 m/s 715 mmHg 18%
    11:00 +36°C° 0 mm 3 m/s 714 mmHg 16%
    12:00 +37°C° 0 mm 3 m/s 714 mmHg 15%
    13:00 +38°C° 0 mm 3 m/s 713 mmHg 14%
    14:00 +38°C° 0 mm 3 m/s 713 mmHg 14%
    15:00 +38°C° 0 mm 3 m/s 712 mmHg 13%
    16:00 +38°C° 0 mm 2 m/s 712 mmHg 13%
    17:00 +36°C° 0 mm 2 m/s 712 mmHg 15%
    18:00 +35°C° 0 mm 2 m/s 712 mmHg 16%
    19:00 +32°C° 0 mm 2 m/s 713 mmHg 18%
    20:00 +33°C° 0 mm 3 m/s 713 mmHg 19%
    21:00 +31°C° 0 mm 3 m/s 713 mmHg 19%
    22:00 +32°C° 0 mm 4 m/s 714 mmHg 20%
    23:00 +30°C° 0 mm 5 m/s 714 mmHg 20%

    Amanhã, 25 Outubro, Quinta-feira

    Tempo Temperatura Precipitação Vento Pressão Humidade
    00:00 +29°C° 0 mm 6 m/s 713 mmHg 21%
    01:00 +28°C° 0 mm 7 m/s 713 mmHg 21%
    02:00 +27°C° 0 mm 6 m/s 713 mmHg 24%
    03:00 +26°C° 0 mm 6 m/s 714 mmHg 27%
    04:00 +24°C° 0 mm 6 m/s 714 mmHg 30%
    05:00 +26°C° 0 mm 6 m/s 714 mmHg 30%
    06:00 +26°C° 0 mm 6 m/s 715 mmHg 30%
    07:00 +26°C° 0 mm 7 m/s 716 mmHg 30%
    08:00 +27°C° 0 mm 7 m/s 716 mmHg 27%
    09:00 +29°C° 0 mm 6 m/s 716 mmHg 23%
    10:00 +32°C° 0 mm 6 m/s 717 mmHg 20%
    11:00 +32°C° 0 mm 6 m/s 716 mmHg 19%
    12:00 +33°C° 0 mm 5 m/s 715 mmHg 18%
    13:00 +34°C° 0 mm 5 m/s 715 mmHg 18%
    14:00 +33°C° 0 mm 5 m/s 715 mmHg 18%
    15:00 +33°C° 0 mm 5 m/s 714 mmHg 19%
    16:00 +33°C° 0 mm 5 m/s 714 mmHg 20%
    17:00 +32°C° 0 mm 5 m/s 715 mmHg 21%
    18:00 +30°C° 0 mm 5 m/s 715 mmHg 22%
    19:00 +29°C° 0 mm 5 m/s 715 mmHg 24%
    20:00 +29°C° 0 mm 5 m/s 716 mmHg 25%
    21:00 +28°C° 0 mm 4 m/s 716 mmHg 25%
    22:00 +28°C° 0 mm 4 m/s 716 mmHg 26%
    23:00 +27°C° 0 mm 5 m/s 716 mmHg 27%

    Depois de amanhã, 26 Outubro, Sexta-feira

    Tempo Temperatura Precipitação Vento Pressão Humidade
    00:00 +27°C° 0 mm 5 m/s 716 mmHg 28%
    01:00 +27°C° 0 mm 6 m/s 716 mmHg 28%
    02:00 +26°C° 0 mm 5 m/s 716 mmHg 29%
    03:00 +26°C° 0 mm 5 m/s 715 mmHg 30%
    04:00 +26°C° 0 mm 4 m/s 715 mmHg 30%
    05:00 +26°C° 0 mm 5 m/s 716 mmHg 31%
    06:00 +26°C° 0 mm 5 m/s 716 mmHg 31%
    07:00 +26°C° 0 mm 6 m/s 717 mmHg 31%
    08:00 +27°C° 0 mm 5 m/s 717 mmHg 29%
    09:00 +28°C° 0 mm 5 m/s 718 mmHg 27%
    10:00 +29°C° 0 mm 5 m/s 718 mmHg 25%
    11:00 +30°C° 0 mm 5 m/s 717 mmHg 24%
    12:00 +32°C° 0 mm 4 m/s 717 mmHg 22%
    13:00 +33°C° 0 mm 3 m/s 716 mmHg 21%
    14:00 +33°C° 0 mm 4 m/s 716 mmHg 21%
    15:00 +33°C° 0 mm 4 m/s 716 mmHg 21%
    16:00 +33°C° 0 mm 5 m/s 716 mmHg 21%
    17:00 +32°C° 0 mm 5 m/s 716 mmHg 23%
    18:00 +32°C° 0 mm 4 m/s 717 mmHg 24%
    19:00 +30°C° 0 mm 4 m/s 717 mmHg 25%
    20:00 +29°C° 0 mm 5 m/s 717 mmHg 27%
    21:00 +28°C° 0 mm 5 m/s 717 mmHg 28%
    22:00 +28°C° 0 mm 5 m/s 718 mmHg 30%
    23:00 +27°C° 0 mm 5 m/s 717 mmHg 31%

    27 Outubro, Sábado

    Tempo Temperatura Precipitação Vento Pressão Humidade
    00:00 +27°C° 0 mm 5 m/s 717 mmHg 33%
    01:00 +26°C° 0 mm 4 m/s 717 mmHg 34%
    02:00 +25°C° 0 mm 4 m/s 717 mmHg 35%
    03:00 +25°C° 0 mm 4 m/s 717 mmHg 36%
    04:00 +25°C° 0 mm 3 m/s 717 mmHg 37%
    05:00 +25°C° 0 mm 4 m/s 717 mmHg 36%
    06:00 +25°C° 0 mm 4 m/s 718 mmHg 35%
    07:00 +26°C° 0 mm 5 m/s 718 mmHg 34%
    08:00 +28°C° 0 mm 4 m/s 718 mmHg 30%
    09:00 +30°C° 0 mm 4 m/s 718 mmHg 25%
    10:00 +33°C° 0 mm 4 m/s 718 mmHg 21%
    11:00 +34°C° 0 mm 4 m/s 718 mmHg 20%
    12:00 +35°C° 0 mm 3 m/s 717 mmHg 18%
    13:00 +36°C° 0 mm 2 m/s 716 mmHg 17%
    14:00 +36°C° 0 mm 2 m/s 716 mmHg 17%
    15:00 +36°C° 0 mm 3 m/s 715 mmHg 16%
    16:00 +37°C° 0 mm 3 m/s 715 mmHg 16%
    17:00 +35°C° 0 mm 3 m/s 715 mmHg 18%
    18:00 +34°C° 0 mm 3 m/s 716 mmHg 19%
    19:00 +33°C° 0 mm 3 m/s 716 mmHg 21%
    20:00 +31°C° 0 mm 3 m/s 716 mmHg 21%
    21:00 +31°C° 0 mm 3 m/s 716 mmHg 22%
    22:00 +30°C° 0 mm 3 m/s 717 mmHg 23%
    23:00 +29°C° 0 mm 3 m/s 716 mmHg 24%

    28 Outubro, Domingo

    Tempo Temperatura Precipitação Vento Pressão Humidade
    00:00 +29°C° 0 mm 4 m/s 716 mmHg 25%
    01:00 +28°C° 0 mm 4 m/s 715 mmHg 26%
    02:00 +28°C° 0 mm 4 m/s 715 mmHg 27%
    03:00 +27°C° 0 mm 4 m/s 715 mmHg 28%
    04:00 +27°C° 0 mm 4 m/s 715 mmHg 29%
    05:00 +27°C° 0 mm 4 m/s 716 mmHg 29%
    06:00 +27°C° 0 mm 4 m/s 716 mmHg 29%
    07:00 +27°C° 0 mm 4 m/s 717 mmHg 29%
    08:00 +29°C° 0 mm 4 m/s 717 mmHg 26%
    09:00 +32°C° 0 mm 4 m/s 717 mmHg 23%
    10:00 +34°C° 0 mm 5 m/s 718 mmHg 20%
    11:00 +35°C° 0 mm 4 m/s 717 mmHg 19%
    12:00 +36°C° 0 mm 4 m/s 716 mmHg 18%
    13:00 +37°C° 0 mm 3 m/s 715 mmHg 16%
    14:00 +37°C° 0 mm 2 m/s 715 mmHg 16%
    15:00 +37°C° 0 mm 2 m/s 715 mmHg 16%
    16:00 +37°C° 0 mm 2 m/s 715 mmHg 15%
    17:00 +35°C° 0 mm 1 m/s 715 mmHg 17%
    18:00 +33°C° 0 mm 1 m/s 715 mmHg 19%
    19:00 +32°C° 0 mm 1 m/s 715 mmHg 21%
    20:00 +31°C° 0 mm 2 m/s 715 mmHg 21%
    21:00 +31°C° 0 mm 2 m/s 715 mmHg 21%
    22:00 +31°C° 0 mm 2 m/s 715 mmHg 21%
    23:00 +30°C° 0 mm 2 m/s 715 mmHg 22%

    29 Outubro, Segunda-feira

    Tempo Temperatura Precipitação Vento Pressão Humidade
    00:00 +29°C° 0 mm 2 m/s 715 mmHg 23%
    01:00 +29°C° 0 mm 2 m/s 714 mmHg 24%
    02:00 +28°C° 0 mm 2 m/s 714 mmHg 24%
    03:00 +28°C° 0 mm 2 m/s 714 mmHg 25%
    04:00 +27°C° 0 mm 1 m/s 714 mmHg 26%
    05:00 +28°C° 0 mm 2 m/s 715 mmHg 24%
    06:00 +29°C° 0 mm 2 m/s 716 mmHg 23%
    07:00 +29°C° 0 mm 3 m/s 716 mmHg 21%
    08:00 +31°C° 0 mm 3 m/s 716 mmHg 19%
    09:00 +34°C° 0 mm 4 m/s 716 mmHg 17%
    10:00 +36°C° 0 mm 4 m/s 716 mmHg 14%
    11:00 +37°C° 0 mm 4 m/s 716 mmHg 14%
    12:00 +38°C° 0 mm 4 m/s 715 mmHg 13%
    13:00 +39°C° 0 mm 3 m/s 714 mmHg 12%
    14:00 +39°C° 0 mm 3 m/s 714 mmHg 12%
    15:00 +39°C° 0 mm 2 m/s 714 mmHg 12%
    16:00 +39°C° 0 mm 1 m/s 714 mmHg 12%
    17:00 +36°C° 0 mm 1 m/s 714 mmHg 13%
    18:00 +35°C° 0 mm 2 m/s 714 mmHg 14%
    19:00 +34°C° 0 mm 2 m/s 714 mmHg 16%
    20:00 +32°C° 0 mm 2 m/s 714 mmHg 16%
    21:00 +32°C° 0 mm 2 m/s 714 mmHg 17%
    22:00 +31°C° 0 mm 2 m/s 715 mmHg 17%
    23:00 +31°C° 0 mm 2 m/s 714 mmHg 18%

    30 Outubro, Terça-feira

    Tempo Temperatura Precipitação Vento Pressão Humidade
    00:00 +30°C° 0 mm 2 m/s 714 mmHg 19%
    01:00 +29°C° 0 mm 2 m/s 714 mmHg 19%
    02:00 +29°C° 0 mm 2 m/s 714 mmHg 20%
    03:00 +29°C° 0 mm 2 m/s 714 mmHg 21%
    04:00 +28°C° 0 mm 2 m/s 714 mmHg 21%
    05:00 +28°C° 0 mm 2 m/s 714 mmHg 21%
    06:00 +29°C° 0 mm 2 m/s 714 mmHg 21%
    07:00 +29°C° 0 mm 2 m/s 715 mmHg 20%
    08:00 +31°C° 0 mm 3 m/s 715 mmHg 18%
    09:00 +34°C° 0 mm 3 m/s 715 mmHg 16%
    10:00 +37°C° 0 mm 3 m/s 715 mmHg 14%
    11:00 +38°C° 0 mm 3 m/s 715 mmHg 13%
    12:00 +39°C° 0 mm 3 m/s 714 mmHg 12%
    13:00 +41°C° 0 mm 4 m/s 714 mmHg 11%
    14:00 +41°C° 0 mm 4 m/s 714 mmHg 11%
    15:00 +40°C° 0 mm 5 m/s 714 mmHg 11%
    16:00 +40°C° 0 mm 5 m/s 714 mmHg 11%
    17:00 +38°C° 0 mm 4 m/s 714 mmHg 12%
    18:00 +36°C° 0 mm 4 m/s 714 mmHg 13%
    19:00 +34°C° 0 mm 4 m/s 714 mmHg 15%
    20:00 +34°C° 0 mm 4 m/s 714 mmHg 15%
    21:00 +33°C° 0 mm 4 m/s 715 mmHg 15%
    22:00 +32°C° 0 mm 4 m/s 715 mmHg 16%
    23:00 +32°C° 0 mm 4 m/s 715 mmHg 16%
    Mostrar mais